Location: Newark
(45.2862°N, 9.8850°E)
Time: 20:51:35
(UTC+00:00)

N. Korean satellite - Pass Details

Date: 08 December 2019
Orbit: 454 x 507 km, 97.2° (Epoch: 28 January)

Event Time Altitude Azimuth Distance (km) Brightness Sun altitude
Rises 04:17:54 0° 29° (NNE) 2,558 10.5 -25.2°
Reaches altitude 10° 04:20:35 10° 51° (NE) 1,659 9.8 -24.8°
Maximum altitude 04:22:55 16° 92° (E) 1,294 9.6 -24.3°
Drops below altitude 10° 04:25:13 10° 133° (SE) 1,630 9.9 -23.9°
Sets 04:27:49 0° 155° (SSE) 2,489 10.6 -23.5°
